User: anonymous   Login
Location: Donald C. Martin Observatory
(38.3885°N, 82.3916°W)
Time: 15:46:12
(UTC-04:00)
Language:

Cosmos 1484 Rocket - Orbit

View from above orbital plane
View from above orbital plane
View from above satellite
View from above satellite

Ground track
Ground track

The orbit data is extracted from the following two-line orbital elements,

1 14208U 83075B   17233.22495037  .00000498  00000-0  33646-4 0  9993
2 14208  97.3409 241.1239 0037663 266.6608  93.0313 15.10437125857323
Epoch (UTC): 21 August 2017 05:23:55
Eccentricity: 0.0037663
inclination: 97.3409°
perigee height: 509 km
apogee height: 561 km
right ascension of ascending node: 241.1239°
argument of perigee: 266.6608°
revolutions per day: 15.10437125
mean anomaly at epoch: 93.0313°
orbit number at epoch: 85732

The dashed part of the orbit path shows where the satellite is in the earth's shadow,  

DLR